This is the latest recevied weather packets stored in our database for station/object DG8SF-13. If no packets are shown the sender has not sent any weather packets the latest 10 day(s).
| Time | Temp. | Humidity | Pressure | Rain* | Wind** | Luminosity | Snow |
|---|---|---|---|---|---|---|---|
| 1777717448 | 22.78° C | 35% | 1021.4 hPa | 0 mm | - | - | - |
| 1777717137 | 23.89° C | 34% | 1021.5 hPa | 0 mm | - | - | - |
| 1777716823 | 23.89° C | 34% | 1021.5 hPa | 0 mm | - | - | - |
| 1777716511 | 23.89° C | 34% | 1021.6 hPa | 0 mm | - | - | - |
| 1777716199 | 23.89° C | 33% | 1021.7 hPa | 0 mm | - | - | - |
| 1777715893 | 22.78° C | 35% | 1021.7 hPa | 0 mm | - | - | - |
| 1777715575 | 22.78° C | 36% | 1021.8 hPa | 0 mm | - | - | - |
| 1777715264 | 22.22° C | 38% | 1021.9 hPa | 0 mm | - | - | - |
| 1777714952 | 21.67° C | 38% | 1021.9 hPa | 0 mm | - | - | - |
| 1777714638 | 22.22° C | 37% | 1022 hPa | 0 mm | - | - | - |
| 1777714327 | 22.22° C | 41% | 1022 hPa | 0 mm | - | - | - |
| 1777714015 | 21.67° C | 40% | 1022.2 hPa | 0 mm | - | - | - |
| 1777713703 | 19.44° C | 44% | 1022.2 hPa | 0 mm | - | - | - |
| 1777713392 | 20.56° C | 44% | 1022.2 hPa | 0 mm | - | - | - |
| 1777713078 | 20.56° C | 42% | 1022.1 hPa | 0 mm | - | - | - |
| 1777712781 | 21.11° C | 41% | 1022.2 hPa | 0 mm | - | - | - |
| 1777712466 | 20° C | 43% | 1022.3 hPa | 0 mm | - | - | - |
| 1777712167 | 19.44° C | 44% | 1022.3 hPa | 0 mm | - | - | - |
| 1777711853 | 20° C | 43% | 1022.3 hPa | 0 mm | - | - | - |
| 1777711544 | 20.56° C | 41% | 1022.3 hPa | 0 mm | - | - | - |
| 1777711232 | 20.56° C | 39% | 1022.3 hPa | 0 mm | - | - | - |
| 1777710930 | 20.56° C | 40% | 1022.4 hPa | 0 mm | - | - | - |
| 1777710618 | 20.56° C | 41% | 1022.4 hPa | 0 mm | - | - | - |
| 1777710327 | 19.44° C | 44% | 1022.4 hPa | 0 mm | - | - | - |
| 1777710006 | 18.33° C | 44% | 1022.4 hPa | 0 mm | - | - | - |
* Rain latest hour (hover to see other rain measurements)
** Current wind speed in m/s (hover to see current wind gust speed)